Find OneWeb SL0261

NORAD ID: 48979 Int'l Des: 2021-060 Owner: ONEWEBN Country: UK Constellation: oneweb operational
LEOCIRCULARPOLARONEWEB_TYPE

当前视图

正在加载3D地球...

About OneWeb SL0261

OneWeb SL0261 (NORAD 48979) is a oneweb constellation satellite launched Jul 1, 2021 by ONEWEBN of UK. It operates in LEO, CIRCULAR, POLAR, ONEWEB_TYPE orbit with a mass of 148.00 kg.

关于 OneWeb SL0261

正在加载描述...

即将过境

Passes for default location (London). Set your location on the main map for personalized predictions.

高度历史

Loading altitude history...

两行轨道根数

1 48979U 21060N 26178.16681647 -.00000068 00000-0 -21038-3 0 9992
2 48979 87.9086 226.8020 0001801 102.4957 257.6375 13.16592793240978
Epoch: Jun 27, 2026 • Age: 9 hours

当前状态

高度 1223.8 km
速度 7.24 km/s
星下点 -64.46°S, 114.77°E
发射日期 Jul 1, 2021
运行时间 4.9 years
类型 internet

技术详情

分类 Payload
质量 148.00 kg
干质量 140.00 kg
总质量 148.00 kg
长度 1.30 m
直径 1.00 m
跨度 5.00 m
形状 Trapezoid+2 pan
制造商 ONEWUS
平台类型 ARROW
阶段状态 In Orbit
所有者/国家 ONEWEBN/UK

Most Searched